Flag for Switzerland Weather past 2 weeks in Grenchen, Solothurn, Switzerland

Now
60 °F

Cool.


Feels Like: 60 °F
Forecast: 55 / 69 °F
Wind: 3 mph from West

Location: Grenchen

Current Time: Jul 13, 2014 at 5:47:35 AM

Latest Report: Jul 13, 2014 at 4:00 AM


Visibility: N/A

Pressure: 29.97 "Hg

Humidity: 96%

Dew point: 58 °F

Location of GrenchenLocation

Historic Weather in Grenchen — Graph

°F

Grenchen temperature yesterday

Maximum temperature yesterday: 73 °F (at 5:00 PM)
Minimum temperature yesterday: 53 °F (at 6:00 AM)
Average temperature yesterday: 62 °F

Past Weeks' High & Low Weather Summary

 TemperatureHumidityPressure
High80 °F (Jul 4, 6:00 PM)100% (Jul 3, 4:00 AM)30.32 "Hg (Jul 3, 4:00 AM)
Low46 °F (Jul 1, 6:00 AM)31% (Jul 1, 3:00 PM)29.74 "Hg (Jul 4, 7:00 PM)
Average61 °F82%29.99 "Hg
* Reported Jun 28 4:00 AM — Jul 13 4:00 AM, Grenchen, Weather by CustomWeather, © 2014

Note: Actual official high and low records may vary slightly from our data, if they occured in-between our weather recording intervals... More about our weather records

Advertising

Grenchen weather history for previous 24 hours

 ConditionsComfort  
Time TempWeatherWind HumidityBarometerVisibility
4:00 AM
Jul 13
60 °FCool.3 mph96%29.97 "HgN/A
3:00 AM60 °FCool.3 mph94%29.97 "HgN/A
2:00 AM61 °FCool.6 mph93%29.97 "HgN/A
1:00 AM61 °FCool.3 mph88%29.97 "HgN/A
12:00 AM63 °FMild.5 mph81%29.97 "HgN/A
11:00 PM
Jul 12
62 °FCool.1 mph85%29.96 "HgN/A
10:00 PM65 °FMild.9 mph68%29.95 "HgN/A
9:00 PM67 °FMild.5 mph67%29.92 "HgN/A
8:00 PM67 °FMild.5 mph66%29.90 "HgN/A
7:00 PM69 °FMild.3 mph61%29.88 "HgN/A
6:00 PM70 °FMild.5 mph60%29.88 "HgN/A
5:00 PM73 °FMild.12 mph58%29.87 "HgN/A
4:00 PM72 °FMild.2 mph55%29.88 "HgN/A
3:00 PM71 °FMild.3 mph59%29.89 "HgN/A
2:00 PM69 °FMild.2 mph61%29.90 "HgN/A
1:00 PM70 °FMild.5 mph65%29.91 "HgN/A
12:00 PM66 °FMild.3 mph74%29.94 "HgN/A
11:00 AM64 °FMild.2 mph88%29.95 "HgN/A
10:00 AM62 °FCool.3 mph96%29.96 "HgN/A
9:00 AM58 °FCool.2 mph100%29.98 "HgN/A
8:00 AM55 °FCool.1 mph100%29.98 "HgN/A
7:00 AM54 °FCool.No wind99%29.99 "HgN/A
6:00 AM53 °FCool.1 mph99%29.98 "HgN/A
5:00 AM53 °FCool.1 mph99%29.98 "HgN/A
Weather by CustomWeather, © 2014

See weather overviewHow to use our weather pages